Aérodrome :
LOGIN :

S'inscrire | Disclaimer

   EN    FR    IT 

 










Légende :    VFR   VFR Marginal   IFR   IFR Intensif   IFR Très Intensif
Visi : 
Plafond : 
>= 8 km
>= 3000ft
5 à 8 km
1000 à 3000 ft
1500m à 5 km
500 à 1000 ft
800 à 1500m
200 à 500 ft
< 800m
< 200 ft
Symboles :   Orages  Brouillard  Fortes neiges  Fortes précipitations  Vent > 20 kt
SIGMETs :   Divers  Orages  Givrage  Turbulence  Onde Orograph.  Cendres Volcan.







- Altitude de l'aérodrome : 348 ft
- Code IATA : STN
- Voir les cartes d'approche


EGSS - London Stansted

DERNIER METAR :
  • 240420Z AUTO 24005KT 7000 NCD 10/09 Q1016

METARs EXPIRÉS :
  • 240350Z AUTO 23005KT 9000 NCD 10/09 Q1016
  • 240320Z AUTO 24005KT 9999 NCD 10/09 Q1016
  • 240250Z AUTO 23004KT 9999 NCD 10/09 Q1016
  • 240220Z AUTO 24005KT 9999 NCD 10/10 Q1016
  • 240150Z AUTO 24006KT 9999 NCD 11/10 Q1015

TAF TAF EGSS
Valide du 24 à 00h jusqu'au 25 à 06h UTC


232301Z 2400/2506 25006KT 9999 FEW045
PROB30
TEMPO 2402/2407 9000
PROB30
TEMPO 2502/2506 8000
ATIS : +44 1279 669 325
Pas de NOTAMs connus pour ce terrain.



MET'MAP, la Météo Aéronautique d'un coup d'oeil ! - Copyright ORBIFLY Décembre 2007 - Disclaimer

ORBIFLY MET'MAP TEAM :

Programmation & Développement : Alexandra Zaïnal
Conception & Développement : Baudouin d'Aumeries
Co-Programmation & Développement : Marc-Olivier Méhu
Soutien technique & logistique : Manuel Goepfert

Contact : metmap@orbifly.com




SOURCES & CREDITS :

   NOAA